Theta_e
334 337 341 341 341 341 342 343 345 351 358 365 363 367 369 370 370 360 360 362 357 353 354 353 363 366 364 366 367 365 369 362 358
334 337 340 341 341 342 343 345 349 353 362 366 368 363 369 368 369 367 362 371 366 358 362 358 364 366 366 367 367 368 370 358 362
338 338 340 342 343 343 344 345 348 351 361 365 361 360 361 361 362 367 367 368 371 368 367 368 371 366 364 366 370 369 370 364 365
340 340 340 341 343 345 346 346 346 348 351 354 358 360 361 362 361 362 364 360 367 368 368 373 370 372 367 367 365 367 369 367 364
341 342 343 344 344 345 346 348 349 349 350 353 356 359 362 359 361 363 361 363 361 365 368 374 374 374 370 369 368 369 366 361 359
342 329 331 337 344 346 348 349 351 350 353 354 356 357 356 357 358 358 359 361 365 365 371 372 367 372 370 370 368 367 367 365 362
342 342 334 337 342 346 347 351 351 354 353 354 356 356 357 361 358 360 358 362 368 365 372 373 373 373 372 371 370 368 364 363 363
339 343 346 344 345 348 350 352 355 356 355 356 358 359 357 359 364 367 372 372 372 370 372 372 376 375 373 372 367 362 366 364 364
334 338 345 350 350 349 350 350 352 354 352 348 359 353 354 358 368 369 369 373 372 376 373 374 376 374 373 370 362 348 346 360 362
335 336 339 344 346 347 345 342 343 343 346 344 341 341 340 347 353 361 372 371 374 373 372 372 372 373 373 372 372 344 341 346 359
337 338 338 339 340 339 342 345 346 353 344 349 343 340 340 339 341 354 368 367 370 370 370 371 372 371 372 372 371 343 336 343 359
342 341 342 340 340 341 340 342 347 352 353 356 357 356 359 359 360 365 365 368 367 364 362 364 369 370 372 371 371 338 334 341 359
335 338 340 339 342 345 343 342 345 348 348 350 349 351 355 357 356 355 351 353 359 369 371 369 364 366 370 359 370 332 328 340 352
338 340 340 343 345 344 344 344 343 344 348 350 352 352 353 355 355 356 354 357 362 363 365 370 371 370 370 369 365 353 325 331 351
335 338 342 346 346 348 347 345 345 345 346 349 351 352 353 355 355 351 347 356 362 362 362 364 367 364 363 363 364 336 323 325 334
328 330 335 340 340 344 349 346 345 341 352 350 347 347 348 352 354 352 355 355 355 346 352 348 351 355 353 346 347 347 324 321 323
324 326 326 329 333 335 337 342 341 341 343 343 340 341 341 344 346 350 356 344 342 340 338 342 346 349 345 345 346 346 335 326 325
323 325 325 326 327 327 330 335 337 336 339 339 335 334 333 332 328 339 339 344 338 338 345 337 342 346 351 349 347 348 331 328 331
323 325 326 328 329 330 330 331 335 337 338 338 336 332 328 325 326 325 325 325 331 322 323 318 316 311 323 346 323 313 311 310 311
322 324 328 328 328 329 331 337 334 337 339 338 336 334 331 326 322 323 323 324 326 325 325 314 309 307 307 306 311 306 307 306 304
Wind_Speed
8 18 21 21 21 20 21 21 22 19 19 17 18 17 16 13 14 11 11 11 9 10 9 7 7 11 11 13 12 11 8 9 6
4 14 20 22 21 19 19 20 20 19 17 17 16 18 14 15 14 14 12 11 11 9 7 7 10 11 11 11 9 10 9 8 8
8 6 14 19 18 19 17 18 18 18 17 17 17 19 17 15 17 16 13 11 10 11 8 7 9 11 11 11 11 10 9 8 8
6 3 7 11 16 17 17 17 18 18 18 18 17 17 15 15 15 16 15 14 12 11 10 9 8 10 11 11 11 11 10 9 6
7 10 9 12 9 15 17 16 15 17 16 16 16 15 13 15 14 14 16 14 15 15 13 11 10 10 12 11 12 11 12 12 11
10 5 3 8 14 9 12 13 9 12 12 13 12 13 14 14 15 15 16 16 14 15 13 12 14 13 13 13 13 12 12 12 12
8 9 2 4 11 2 5 6 12 8 9 11 12 9 10 11 12 13 14 14 13 14 14 14 14 15 15 15 14 14 14 15 13
7 7 7 10 7 8 7 8 8 10 10 7 5 8 4 6 6 9 9 10 11 13 13 14 14 14 14 15 15 14 16 16 15
4 9 10 8 10 9 13 12 6 9 9 8 14 8 8 11 9 8 10 10 11 11 13 13 14 15 16 16 15 17 17 16 15
2 4 6 12 12 14 13 11 9 9 10 7 9 10 7 7 12 15 10 11 11 12 13 13 15 16 16 17 17 13 18 18 16
7 4 3 2 7 8 11 12 11 8 13 11 11 6 4 10 4 25 12 9 11 12 12 13 13 14 16 16 15 14 16 20 20
6 8 7 7 7 8 8 9 8 9 7 5 3 6 9 10 9 5 5 7 9 11 8 11 12 11 14 16 15 15 19 17 17
5 7 9 8 8 9 6 5 8 9 9 8 7 6 6 3 2 3 3 3 4 6 7 11 12 13 13 14 15 13 16 18 10
4 5 7 6 5 8 10 8 6 6 7 7 6 5 5 5 4 4 4 4 4 5 7 7 9 11 11 12 14 12 19 20 15
13 12 8 7 8 10 10 8 7 9 8 6 5 5 5 5 5 5 5 5 6 6 6 8 9 10 10 8 9 8 14 18 15
8 9 12 9 10 10 9 10 8 9 7 6 6 7 8 7 6 6 6 6 7 8 5 8 7 7 7 4 4 6 14 18 13
13 12 10 10 10 9 8 8 7 8 6 8 8 8 7 7 7 8 8 8 9 7 7 5 7 6 5 6 8 9 6 8 9
14 13 14 12 11 10 10 8 8 10 8 8 8 6 6 7 9 9 9 8 10 9 9 7 7 8 8 7 6 6 15 13 9
16 15 15 9 9 10 11 11 9 9 8 9 8 7 8 6 6 9 10 11 10 14 14 7 7 8 7 9 3 6 14 12 14
15 15 16 11 11 11 10 9 8 9 7 6 6 6 6 7 7 9 10 11 12 12 9 11 14 13 11 9 10 9 13 14 12
Wind_Direction
289 182 181 190 189 191 187 197 192 194 181 186 196 200 202 202 210 215 218 211 240 217 190 192 169 176 193 219 187 193 194 207 215
305 177 185 184 190 192 188 195 194 191 181 184 193 202 201 202 202 218 213 224 204 235 236 187 172 178 202 198 208 199 183 224 189
9 189 198 180 192 192 193 192 200 194 183 183 196 206 202 205 204 205 218 200 212 224 215 237 158 187 197 203 202 197 206 192 204
58 335 203 202 195 196 194 198 195 198 194 196 199 206 203 207 206 203 205 207 201 209 223 194 219 187 202 204 208 205 197 238 193
82 65 14 352 245 204 193 205 201 195 194 199 202 206 208 201 210 209 201 211 202 202 212 201 203 195 206 207 208 208 208 213 228
87 95 225 80 318 239 189 184 204 211 197 198 213 202 200 215 203 208 211 203 215 200 203 204 206 205 207 210 210 209 210 217 223
70 122 97 55 267 40 149 196 186 195 197 199 186 225 208 205 221 213 221 210 206 218 199 206 206 205 207 210 211 207 213 212 216
98 94 133 175 156 152 156 134 149 180 181 146 88 150 208 235 252 241 221 236 211 209 218 205 212 212 215 216 212 211 206 212 204
143 128 129 128 128 136 132 140 152 112 87 92 105 32 62 1 312 254 257 237 232 224 214 218 211 216 216 216 222 216 206 205 205
176 144 137 143 147 151 148 149 132 190 175 152 93 144 259 54 341 286 238 241 243 232 231 228 222 222 221 221 222 217 197 197 217
183 191 135 83 97 129 133 128 124 134 139 145 143 152 91 69 309 262 249 234 237 236 235 230 229 230 227 229 227 203 191 193 211
208 197 197 189 177 81 88 119 121 126 124 122 131 170 168 187 204 256 258 238 211 223 241 245 239 237 234 232 233 203 188 184 210
208 189 197 192 142 149 164 167 151 150 147 155 157 145 163 174 303 281 276 320 307 271 236 233 235 241 239 231 236 186 178 183 195
332 274 205 201 217 211 174 183 198 192 167 179 158 173 182 193 213 251 263 298 293 284 287 266 262 250 242 243 236 196 187 184 184
332 319 270 210 234 230 182 196 207 213 209 187 203 227 227 229 246 278 305 309 306 308 295 270 262 244 253 247 252 197 191 193 189
270 263 294 266 267 252 228 168 205 226 195 183 232 242 245 245 251 253 263 266 281 284 233 277 272 262 267 222 214 194 182 200 210
299 297 289 293 287 265 262 215 187 232 212 205 215 225 234 243 246 251 260 269 267 256 291 282 282 255 226 228 225 223 176 194 209
290 287 284 271 273 270 269 248 203 226 185 203 222 221 236 249 253 248 254 243 270 272 293 274 256 248 250 238 290 251 171 170 190
285 285 283 274 269 260 259 256 211 222 208 205 217 228 239 272 301 276 276 282 274 219 226 175 225 270 277 272 160 157 166 178 177
301 297 276 263 269 252 256 245 225 232 215 222 235 250 270 274 297 287 289 282 283 279 230 206 187 209 229 226 279 186 182 188 168